Simultaneous Nadir Overpasses (SNOs) Predictions

Prediction of SNOs between NOAA-19 and NPP Satellite Orbit:

Table of predicted SNOs for the next 14.0 days since TLE Epoch: 12/7/2012
Index Date (NOAA-19) Time (NOAA-19) NOAA-19 Lat,Lon Date (NPP) Time (NPP) NPP Lat,Lon Distance(km) Time Diff (sec)
1 12/10/2012 01:54:25 -80.82, -79.02 12/10/2012 01:55:30 -80.82, -79.05 0.56 65
2 12/10/2012 02:45:28 80.79, 88.81 12/10/2012 02:46:14 80.79, 88.69 2.13 46
3 12/10/2012 03:36:28 -80.79,-103.87 12/10/2012 03:36:58 -80.78,-103.76 1.94 30
4 12/10/2012 04:27:31 80.76, 63.96 12/10/2012 04:27:42 80.76, 63.98 0.32 11
5 12/10/2012 05:18:29 -80.72,-128.02 12/10/2012 05:18:25 -80.72,-128.14 2.13 4
6 12/10/2012 06:09:35 80.74, 38.76 12/10/2012 06:09:11 80.74, 38.91 2.76 24
7 12/10/2012 07:00:32
